TimeEEST,TemperatureF,Dew PointF,Humidity,Sea Level PressureIn,VisibilityMPH,Wind Direction,Wind SpeedMPH,Gust SpeedMPH,PrecipitationIn,Events,Conditions,WindDirDegrees,DateUTC
12:50 AM,51.8,24.8,35,29.95,-9999.0,East,9.2,-,N/A,,Clear,80,2013-09-15 21:50:00
1:50 AM,51.8,39.2,62,29.95,-9999.0,East,9.2,-,N/A,,Clear,80,2013-09-15 22:50:00
3:50 AM,51.8,44.6,76,29.98,-9999.0,East,9.2,-,N/A,,Clear,80,2013-09-16 00:50:00
4:50 AM,48.2,42.8,82,29.98,-9999.0,East,9.2,-,N/A,,Clear,80,2013-09-16 01:50:00
5:50 AM,48.2,42.8,82,29.98,-9999.0,ENE,5.8,-,N/A,,Clear,70,2013-09-16 02:50:00
6:50 AM,53.6,42.8,67,30.01,-9999.0,NE,3.5,-,N/A,,Clear,40,2013-09-16 03:50:00
7:50 AM,57.2,44.6,63,30.01,6.2,NE,3.5,-,N/A,,Partly Cloudy,40,2013-09-16 04:50:00
8:50 AM,59.0,44.6,59,30.04,6.2,ENE,8.1,-,N/A,,Scattered Clouds,70,2013-09-16 05:50:00
9:00 AM,59,44,47,,6,ENE,8.1,,,,Partly Cloudy,70,2013-09-16 06:00:00
9:50 AM,64.4,42.8,45,30.04,6.2,NNE,4.6,-,N/A,,Scattered Clouds,30,2013-09-16 06:50:00
10:50 AM,64.4,41.0,42,30.01,6.2,Variable,5.8,-,N/A,,Partly Cloudy,0,2013-09-16 07:50:00
11:50 AM,66.2,39.2,37,30.01,6.2,Variable,3.5,-,N/A,,Scattered Clouds,0,2013-09-16 08:50:00
1:50 PM,71.6,39.2,31,29.98,6.2,West,1.2,-,N/A,,Scattered Clouds,280,2013-09-16 10:50:00
2:50 PM,73.4,35.6,25,29.95,6.2,Variable,1.2,-,N/A,,Scattered Clouds,0,2013-09-16 11:50:00
3:50 PM,73.4,33.8,23,29.95,6.2,SSW,4.6,-,N/A,,Scattered Clouds,210,2013-09-16 12:50:00
4:50 PM,73.4,32.0,22,29.95,6.2,Variable,2.3,-,N/A,,Scattered Clouds,0,2013-09-16 13:50:00
5:50 PM,66.2,41.0,40,29.95,6.2,NE,16.1,-,N/A,,Mostly Cloudy,50,2013-09-16 14:50:00
6:11 PM,66.2,41.0,40,29.95,6.2,NE,12.7,-,N/A,Thunderstorm,Thunderstorm,40,2013-09-16 15:11:00
6:50 PM,62.6,42.8,48,29.98,6.2,NE,8.1,-,N/A,Thunderstorm,Thunderstorm,50,2013-09-16 15:50:00
7:19 PM,62.6,41.0,45,30.01,6.2,East,6.9,-,N/A,Rain-Thunderstorm,Light Thunderstorms and Rain,90,2013-09-16 16:19:00
7:50 PM,60.8,44.6,55,29.98,6.2,East,18.4,-,N/A,,Mostly Cloudy,90,2013-09-16 16:50:00
8:08 PM,60.8,42.8,52,30.01,6.2,East,11.5,-,N/A,Rain-Thunderstorm,Light Thunderstorms and Rain,90,2013-09-16 17:08:00
8:50 PM,59.0,44.6,59,30.01,6.2,East,5.8,-,N/A,,Mostly Cloudy,90,2013-09-16 17:50:00
9:50 PM,57.2,44.6,63,30.01,6.2,NE,11.5,-,N/A,,Mostly Cloudy,40,2013-09-16 18:50:00
10:50 PM,53.6,42.8,67,30.01,6.2,ENE,6.9,-,N/A,,Scattered Clouds,60,2013-09-16 19:50:00
11:50 PM,50.0,41.0,71,29.98,6.2,NE,8.1,-,N/A,,Partly Cloudy,40,2013-09-16 20:50:00